This is the latest recevied weather packets stored in our database for station/object SP6PWT-13. If no packets are shown the sender has not sent any weather packets the latest 10 day(s).
| Time | Temp. | Humidity | Pressure | Rain* | Wind** | Luminosity | Snow |
|---|---|---|---|---|---|---|---|
| 1777747341 | 20.56° C | 33% | 1002.7 hPa | 0 mm | - | 0 W/m² | - |
| 1777747030 | 21.11° C | 33% | 1002.8 hPa | 0 mm | - | 0 W/m² | - |
| 1777746730 | 21.11° C | 33% | 1002.7 hPa | 0 mm | - | 0 W/m² | - |
| 1777746429 | 21.11° C | 33% | 1002.7 hPa | 0 mm | - | 0 W/m² | - |
| 1777746128 | 21.11° C | 33% | 1002.7 hPa | 0 mm | - | 1 W/m² | - |
| 1777745818 | 21.11° C | 33% | 1002.3 hPa | 0 mm | - | 2 W/m² | - |
| 1777745517 | 21.67° C | 32% | 1002.4 hPa | 0 mm | - | 4 W/m² | - |
| 1777745207 | 21.67° C | 32% | 1002.7 hPa | 0 mm | - | 5 W/m² | - |
| 1777744907 | 21.67° C | 31% | 1002.5 hPa | 0 mm | - | 8 W/m² | - |
| 1777744596 | 22.22° C | 31% | 1002.5 hPa | 0 mm | - | 10 W/m² | - |
| 1777744296 | 22.22° C | 30% | 1002.7 hPa | 0 mm | - | 13 W/m² | - |
| 1777743996 | 22.22° C | 30% | 1002.8 hPa | 0 mm | - | 16 W/m² | - |
| 1777743685 | 22.22° C | 30% | 1002.6 hPa | 0 mm | - | 19 W/m² | - |
| 1777743385 | 22.22° C | 30% | 1002.6 hPa | 0 mm | - | 22 W/m² | - |
| 1777743085 | 22.78° C | 30% | 1002.9 hPa | 0 mm | - | 26 W/m² | - |
| 1777742775 | 22.78° C | 29% | 1002.7 hPa | 0 mm | - | 29 W/m² | - |
| 1777742474 | 22.78° C | 29% | 1002.8 hPa | 0 mm | - | 33 W/m² | - |
| 1777742164 | 22.78° C | 29% | 1002.9 hPa | 0 mm | - | 38 W/m² | - |
| 1777741864 | 22.78° C | 29% | 1002.9 hPa | 0 mm | - | 43 W/m² | - |
| 1777741553 | 22.78° C | 30% | 1003 hPa | 0 mm | - | 48 W/m² | - |
| 1777741253 | 22.78° C | 29% | 1002.9 hPa | 0 mm | - | 47 W/m² | - |
| 1777740952 | 22.78° C | 29% | 1003 hPa | 0 mm | - | 60 W/m² | - |
| 1777740642 | 22.78° C | 29% | 1003.2 hPa | 0 mm | - | 67 W/m² | - |
| 1777740341 | 23.33° C | 29% | 1003.1 hPa | 0 mm | - | 75 W/m² | - |
| 1777740031 | 23.33° C | 28% | 1003.3 hPa | 0 mm | - | 83 W/m² | - |
* Rain latest hour (hover to see other rain measurements)
** Current wind speed in m/s (hover to see current wind gust speed)